Date,TemperatureHighF,TemperatureAvgF,TemperatureLowF,DewpointHighF,DewpointAvgF,DewpointLowF,HumidityHigh,HumidityAvg,HumidityLow,PressureMaxIn,PressureMinIn,WindSpeedMaxMPH,WindSpeedAvgMPH,GustSpeedMaxMPH,PrecipitationSumIn
2013-1-1,39,32,27,36,31,27,98,96,87,30.49,30.35,3,0,4,0.01
2013-1-2,48,36,28,30,27,20,98,73,45,30.35,30.18,8,1,14,0.00
2013-1-3,48,37,27,35,25,20,96,63,41,30.18,30.08,3,1,9,0.12
2013-1-4,49,41,36,45,40,35,98,95,85,30.30,30.15,3,0,7,0.01
2013-1-5,44,42,39,38,37,34,97,83,73,30.19,30.09,4,0,10,0.09
2013-1-6,45,40,39,41,39,38,96,94,83,30.16,29.97,5,0,10,0.28
2013-1-7,49,45,40,48,44,39,98,97,96,30.14,29.80,5,1,13,0.73
2013-1-8,50,45,40,49,44,40,98,97,95,30.14,29.71,5,1,13,0.53
2013-1-9,50,39,33,49,38,33,98,97,94,29.93,29.65,4,0,13,1.18
2013-1-10,36,33,28,36,33,28,99,98,97,30.10,29.93,1,0,3,0.13
2013-1-11,34,30,27,33,29,26,98,97,94,30.32,30.09,2,0,3,0.01
2013-1-12,34,27,23,31,26,22,98,95,84,30.43,30.31,3,0,6,0.01
2013-1-13,34,23,19,30,22,18,97,94,80,30.48,30.43,2,0,4,0.01
2013-1-14,33,32,30,33,31,29,98,97,95,30.55,30.46,1,0,3,0.02
2013-1-15,42,34,28,38,32,27,99,94,76,30.69,30.56,3,0,4,0.01
2013-1-16,41,30,25,37,29,24,98,95,84,30.67,30.51,1,0,3,0.00
2013-1-17,40,29,27,38,29,26,99,97,91,30.51,30.29,2,0,3,0.01
2013-1-18,32,29,24,32,29,23,98,98,96,30.34,30.25,3,0,4,0.00
2013-1-19,32,30,28,32,29,27,98,98,97,30.38,30.33,1,0,4,0.01
2013-1-20,34,30,28,34,29,27,99,98,97,30.39,30.26,1,0,3,0.01
2013-1-21,32,29,27,32,29,26,99,98,97,30.26,30.12,2,0,4,0.00
2013-1-22,36,29,23,36,29,22,99,98,96,30.14,29.89,2,0,4,0.00
2013-1-23,41,38,34,40,37,33,99,97,88,30.11,29.82,3,0,8,0.38
2013-1-24,44,40,38,42,39,38,99,97,85,30.19,30.04,4,0,8,0.18
2013-1-25,51,44,38,46,43,38,99,94,81,30.04,29.91,5,0,7,0.04
2013-1-26,41,39,38,41,38,37,98,97,94,30.01,29.86,2,0,8,0.89
2013-1-27,41,39,38,41,39,37,99,98,98,30.04,29.97,2,0,4,0.44
2013-1-28,40,38,36,39,38,36,99,98,98,30.07,29.98,2,0,5,1.01
2013-1-29,44,42,40,44,42,39,99,99,99,30.32,30.07,2,0,4,1.36
2013-1-30,49,45,42,49,45,42,99,99,98,30.36,30.32,3,0,6,0.25
2013-1-31,47,46,45,47,45,45,99,98,96,30.37,30.29,5,0,13,0.12